Temperature
-3 -2 -3 -3 -3 -4 -4 -4 -3 -3 -3 -3 -3 -4 -3 -3 -3 -3 -3 -3 -3 -3 -3 -3 -2 -2 -2 -2 -2 -2 -2 -2 -2 -2 -2 -2 -1 -1 -1 -1 -1 -0 -0 0
-3 -2 -3 -3 -3 -3 -4 -4 -4 -4 -3 -3 -3 -3 -4 -3 -3 -3 -3 -3 -3 -3 -3 -3 -3 -3 -3 -3 -3 -3 -3 -3 -2 -2 -2 -2 -2 -2 -2 -1 -1 -1 -1 -0
-3 -3 -3 -2 -3 -4 -4 -5 -5 -4 -3 -4 -5 -4 -4 -4 -4 -4 -4 -4 -4 -4 -4 -4 -3 -3 -3 -3 -3 -3 -3 -3 -3 -3 -3 -3 -2 -2 -2 -2 -2 -1 -1 -1
-4 -3 -2 -2 -4 -4 -4 -5 -6 -5 -5 -5 -4 -4 -4 -3 -4 -4 -4 -4 -4 -4 -4 -4 -4 -4 -4 -4 -4 -4 -3 -3 -3 -3 -3 -3 -3 -3 -3 -2 -2 -2 -2 -1
-4 -4 -3 -2 -4 -5 -5 -4 -5 -6 -6 -5 -5 -5 -4 -4 -4 -4 -4 -4 -4 -4 -4 -4 -4 -4 -4 -4 -4 -4 -4 -4 -4 -4 -4 -3 -3 -3 -3 -3 -2 -2 -2 -2
-5 -4 -3 -2 -4 -5 -4 -4 -5 -6 -6 -6 -6 -6 -5 -4 -4 -4 -5 -5 -5 -5 -5 -5 -5 -4 -4 -4 -5 -5 -5 -5 -4 -4 -4 -4 -4 -4 -3 -3 -3 -3 -2 -2
-5 -5 -4 -4 -5 -5 -3 -3 -4 -5 -5 -6 -6 -5 -5 -5 -5 -5 -5 -5 -5 -5 -5 -5 -5 -5 -5 -5 -5 -5 -5 -5 -5 -5 -5 -4 -4 -4 -4 -4 -3 -3 -3 -3
-5 -5 -4 -5 -6 -5 -4 -4 -4 -5 -5 -5 -5 -5 -5 -5 -6 -6 -6 -6 -6 -6 -6 -6 -6 -6 -5 -5 -6 -6 -6 -5 -5 -5 -5 -5 -5 -5 -5 -4 -4 -4 -4 -3
-5 -4 -4 -5 -4 -4 -4 -5 -5 -5 -5 -5 -6 -6 -6 -6 -6 -6 -6 -6 -6 -6 -6 -6 -6 -6 -6 -6 -6 -6 -6 -6 -6 -6 -6 -6 -5 -5 -5 -5 -5 -5 -5 -4
-7 -6 -5 -5 -5 -5 -5 -5 -5 -5 -5 -6 -6 -6 -6 -6 -6 -6 -6 -6 -6 -6 -6 -6 -7 -7 -7 -7 -7 -7 -6 -6 -6 -6 -6 -6 -6 -6 -6 -6 -6 -6 -5 -5
-7 -7 -6 -5 -5 -5 -5 -5 -6 -6 -6 -6 -6 -7 -7 -7 -7 -7 -7 -7 -7 -7 -7 -7 -7 -7 -7 -7 -7 -7 -7 -7 -7 -7 -7 -7 -7 -7 -7 -6 -6 -6 -6 -6
-6 -6 -6 -5 -4 -5 -6 -6 -6 -6 -6 -6 -7 -7 -7 -7 -7 -7 -7 -7 -7 -7 -7 -7 -7 -7 -7 -7 -7 -7 -7 -7 -8 -8 -8 -7 -7 -7 -7 -7 -7 -7 -7 -6
-5 -5 -5 -5 -5 -6 -6 -6 -6 -7 -7 -7 -7 -7 -7 -7 -7 -7 -7 -7 -8 -8 -8 -8 -8 -8 -8 -8 -8 -8 -8 -8 -8 -8 -8 -8 -8 -7 -7 -7 -7 -7 -7 -7
-6 -6 -6 -6 -6 -6 -6 -6 -7 -7 -7 -7 -7 -7 -7 -8 -8 -8 -8 -8 -8 -8 -8 -8 -8 -8 -8 -8 -8 -9 -9 -9 -8 -8 -8 -8 -8 -8 -8 -8 -8 -7 -7 -7
-6 -7 -6 -6 -6 -7 -7 -7 -7 -7 -8 -8 -8 -8 -8 -8 -8 -8 -8 -8 -8 -8 -8 -8 -9 -9 -9 -9 -9 -9 -9 -9 -9 -9 -9 -9 -8 -8 -8 -8 -8 -8 -8 -7
-7 -7 -7 -7 -7 -7 -8 -8 -8 -8 -8 -8 -8 -8 -8 -9 -9 -9 -9 -9 -9 -9 -9 -9 -9 -9 -9 -9 -9 -9 -9 -9 -9 -9 -9 -9 -9 -9 -9 -9 -9 -8 -8 -8
-8 -8 -8 -8 -8 -8 -8 -8 -8 -8 -8 -8 -9 -9 -9 -9 -9 -9 -9 -9 -9 -9 -9 -9 -9 -9 -9 -9 -9 -10 -9 -10 -10 -10 -10 -10 -9 -9 -9 -9 -9 -9 -9 -9
-8 -8 -8 -8 -8 -8 -8 -8 -9 -9 -9 -9 -9 -9 -9 -9 -9 -9 -10 -10 -10 -10 -10 -10 -10 -10 -10 -10 -10 -10 -10 -10 -10 -10 -10 -10 -10 -10 -10 -10 -10 -10 -9 -9
-8 -8 -8 -9 -9 -9 -9 -9 -9 -9 -9 -9 -9 -9 -9 -10 -10 -10 -10 -10 -10 -10 -10 -10 -10 -10 -10 -10 -10 -10 -10 -10 -10 -10 -10 -10 -10 -10 -10 -10 -10 -10 -10 -10
-9 -9 -9 -9 -9 -9 -9 -9 -9 -9 -9 -10 -10 -10 -10 -10 -10 -10 -10 -10 -10 -11 -11 -10 -10 -10 -10 -10 -10 -10 -10 -10 -10 -10 -10 -10 -11 -11 -11 -11 -11 -11 -11 -11
-9 -9 -9 -9 -9 -9 -9 -10 -10 -10 -10 -10 -10 -10 -10 -10 -11 -11 -11 -11 -11 -11 -11 -11 -11 -11 -11 -11 -11 -11 -11 -11 -11 -11 -11 -11 -11 -11 -11 -11 -11 -11 -11 -11
-10 -10 -10 -10 -10 -10 -10 -10 -10 -10 -10 -10 -11 -11 -11 -11 -11 -11 -11 -11 -11 -11 -11 -11 -11 -11 -11 -11 -11 -11 -11 -11 -11 -11 -11 -11 -11 -11 -11 -11 -11 -11 -11 -11
-10 -10 -10 -10 -10 -10 -10 -10 -10 -10 -11 -11 -11 -11 -11 -11 -11 -12 -11 -11 -12 -12 -12 -12 -12 -12 -11 -11 -11 -11 -12 -12 -11 -12 -12 -12 -12 -12 -12 -12 -12 -12 -12 -12
-10 -10 -10 -10 -10 -10 -10 -11 -11 -11 -11 -11 -11 -11 -12 -12 -12 -12 -12 -12 -12 -12 -12 -12 -12 -12 -12 -12 -12 -12 -12 -12 -12 -12 -12 -12 -12 -12 -12 -12 -12 -12 -12 -12
-11 -11 -11 -11 -11 -11 -11 -11 -11 -11 -11 -11 -11 -12 -12 -12 -12 -12 -12 -12 -12 -12 -12 -12 -12 -12 -12 -12 -12 -12 -12 -12 -12 -12 -12 -12 -12 -12 -12 -12 -12 -12 -12 -12
-11 -11 -11 -11 -11 -11 -11 -12 -12 -12 -12 -12 -12 -12 -12 -12 -12 -12 -12 -12 -12 -12 -12 -12 -12 -12 -12 -13 -13 -13 -13 -13 -13 -12 -12 -12 -12 -12 -12 -12 -12 -12 -12 -12
-11 -12 -12 -12 -12 -12 -12 -12 -12 -12 -12 -12 -12 -12 -12 -12 -12 -12 -12 -13 -13 -13 -13 -13 -13 -13 -13 -13 -13 -13 -13 -13 -13 -13 -13 -13 -13 -13 -13 -13 -12 -12 -12 -12
Wind_Speed
9 8 5 7 8 5 7 7 8 9 9 11 9 8 8 6 5 5 5 5 4 4 4 4 4 4 4 4 4 3 2 2 2 2 2 2 2 2 2 2 3 3 3 2
6 5 5 9 9 8 8 7 9 11 12 9 7 5 5 5 5 5 6 6 5 4 4 4 4 4 4 4 4 3 2 3 3 2 2 2 2 2 2 2 2 2 2 2
4 4 4 7 8 8 6 6 7 10 10 6 5 6 6 5 5 5 6 6 5 5 4 4 5 4 5 4 4 3 3 3 3 2 2 2 2 2 2 2 2 2 2 2
3 3 6 7 2 5 6 7 7 7 6 4 5 6 4 3 3 5 6 5 5 5 5 5 4 4 4 3 3 3 3 3 3 3 3 2 2 2 3 2 2 2 3 3
1 3 8 6 3 3 4 6 5 6 6 4 3 4 4 3 2 3 4 4 4 4 4 4 5 4 3 3 3 3 3 4 3 3 3 2 3 3 3 2 2 2 3 3
3 3 6 6 2 1 1 5 3 3 5 3 1 3 5 4 4 4 4 4 4 4 4 4 5 4 3 3 4 4 4 4 3 3 2 3 3 3 2 2 2 2 2 2
5 6 8 4 1 2 2 5 3 2 3 3 3 5 4 4 4 3 4 4 4 4 4 5 5 4 3 4 4 5 4 4 3 3 3 3 2 2 1 1 1 1 2 2
5 5 8 1 3 4 5 3 3 3 3 4 5 5 4 3 3 3 4 4 4 4 5 5 5 3 4 5 5 4 4 4 4 4 3 3 1 1 1 1 1 1 2 2
8 7 2 3 4 3 2 3 3 3 4 4 4 5 4 4 4 3 4 4 4 4 5 5 5 3 4 6 5 4 3 3 3 4 3 3 2 1 1 0 1 2 2 2
5 7 4 4 4 3 2 3 4 4 4 3 4 5 4 4 4 3 4 4 4 4 5 6 6 5 4 5 4 3 3 3 3 3 3 2 2 2 1 1 2 2 2 2
6 5 4 4 5 5 4 4 4 4 3 3 3 4 4 4 4 4 4 4 3 4 5 6 6 5 5 5 3 3 3 3 3 3 2 2 2 2 2 2 3 3 3 3
7 5 4 6 4 4 4 4 4 4 4 4 3 4 4 4 4 3 3 3 4 4 5 6 5 5 5 4 3 2 3 3 2 2 2 2 2 3 4 4 5 6 6 5
7 4 5 6 4 3 4 5 4 4 4 4 4 3 3 3 3 3 3 4 4 5 5 5 5 5 5 4 3 2 2 3 3 2 2 2 2 2 3 4 4 5 5 5
4 2 3 4 4 4 3 3 2 3 3 3 3 2 3 3 3 3 4 4 4 4 5 4 4 5 5 3 3 3 3 3 3 2 2 2 2 2 2 2 3 3 4 5
4 4 5 4 3 2 2 1 2 3 3 3 3 3 3 3 4 4 4 4 4 4 5 4 4 5 4 3 3 3 3 2 2 2 2 2 2 2 2 2 2 2 3 4
5 4 3 2 2 2 2 2 2 3 3 3 3 4 3 3 4 4 4 4 3 5 5 4 5 5 4 3 3 2 2 4 3 2 2 2 2 2 2 1 1 2 2 2
2 3 3 4 4 4 3 3 3 3 3 3 4 4 3 3 3 4 5 4 4 4 5 4 5 5 3 2 2 2 2 3 4 3 2 2 2 2 2 2 2 2 2 2
5 5 4 4 4 4 4 3 3 3 3 4 3 2 3 3 4 5 6 5 4 5 5 5 5 4 3 3 2 2 2 2 2 2 2 2 2 2 2 2 2 2 2 3
2 2 2 2 2 2 2 2 3 3 3 3 3 3 4 4 4 5 5 4 5 6 6 6 7 4 3 3 3 2 2 2 2 2 2 3 3 2 2 2 2 2 2 2
2 2 1 1 1 1 2 2 2 3 3 3 3 3 4 5 4 4 4 4 4 5 5 5 4 4 3 3 3 2 2 2 2 2 2 2 2 2 2 2 2 2 2 2
2 2 2 2 2 2 2 2 2 3 3 3 3 4 5 5 4 4 4 5 5 5 5 6 4 3 3 3 4 2 2 2 2 2 2 2 2 2 2 2 2 2 2 2
2 2 2 2 2 3 3 2 2 3 4 4 4 4 4 5 5 4 4 4 5 7 4 3 3 5 5 5 2 2 2 2 2 2 2 2 2 3 3 3 3 3 3 2
2 2 2 2 3 3 3 3 3 3 3 4 4 4 4 4 4 4 5 4 4 6 4 4 5 7 7 4 2 2 2 2 3 3 3 3 3 3 3 3 3 3 3 3
2 2 2 2 2 2 3 4 4 3 4 4 4 4 4 4 4 3 4 7 7 7 4 5 7 7 6 2 2 2 3 3 3 3 3 3 3 3 3 3 3 3 3 3
2 2 2 2 2 3 4 4 4 4 4 4 4 4 3 3 4 5 4 5 7 6 4 6 7 7 4 2 2 3 3 3 3 3 3 3 3 3 3 3 3 3 3 3
2 2 2 2 3 3 3 3 3 3 4 4 5 4 4 4 4 4 4 4 5 6 4 4 4 5 3 3 3 3 3 4 4 3 3 3 3 3 3 3 4 4 4 5
2 2 2 2 3 2 2 3 3 4 4 4 5 4 4 4 4 4 4 4 4 4 4 4 4 4 4 4 4 4 4 4 4 4 3 3 3 3 4 5 5 5 5 6
Wind_Direction
256 263 251 252 254 232 220 225 234 259 262 273 284 284 289 295 303 313 313 312 307 307 311 313 319 320 316 314 315 313 308 296 275 273 269 260 261 259 259 253 260 256 259 250
278 264 249 265 258 238 237 240 244 265 274 274 290 294 298 300 306 302 303 299 302 308 310 309 311 313 316 315 310 312 300 293 291 288 280 264 257 254 258 263 256 255 252 243
276 299 315 276 245 220 232 226 213 240 260 294 309 301 291 289 297 299 304 306 306 307 304 304 303 301 295 293 303 310 302 298 304 300 278 267 266 268 265 267 271 270 257 241
280 353 253 248 217 208 232 244 230 253 277 279 281 297 290 284 284 300 310 314 314 313 313 311 304 304 303 311 314 307 303 301 305 303 288 268 254 256 262 263 260 261 269 259
215 264 275 283 243 199 217 269 239 246 271 290 319 335 311 298 294 291 299 300 298 302 305 314 316 313 321 329 330 326 318 307 299 291 284 269 254 249 252 251 260 259 264 255
192 230 251 259 258 229 135 283 268 239 260 268 355 317 291 309 320 312 315 317 317 321 328 330 325 330 334 325 328 319 312 307 305 294 282 275 267 261 258 251 257 277 289 280
212 235 263 263 252 107 173 269 299 261 264 247 243 254 277 304 317 319 324 324 330 337 334 324 327 339 333 326 314 307 309 313 319 314 293 275 262 268 259 256 274 278 288 294
190 219 255 189 126 183 237 297 296 276 271 270 273 281 287 296 307 319 327 329 334 336 328 327 334 339 328 319 310 313 317 322 323 318 309 308 281 279 269 225 238 274 289 301
201 219 263 174 204 235 245 272 276 281 287 277 280 278 285 293 297 302 308 316 325 325 324 328 332 332 312 308 316 320 324 323 320 318 316 316 308 283 275 261 243 271 272 282
255 262 262 246 248 270 265 263 277 277 272 264 273 278 285 290 299 306 312 315 320 325 324 322 323 321 303 306 314 317 315 315 314 312 312 317 310 297 281 255 251 262 270 277
254 275 303 271 248 259 274 283 291 297 283 267 263 275 275 284 294 301 309 316 320 316 310 309 315 317 315 312 310 311 308 306 307 305 301 311 305 286 274 261 253 253 254 255
243 241 236 269 273 251 255 268 273 283 297 295 269 269 277 283 290 297 303 311 314 311 307 308 312 313 315 314 311 301 303 303 300 298 298 300 301 316 312 296 300 291 284 281
247 258 247 271 279 251 249 264 268 268 269 281 286 274 273 285 295 302 307 308 305 304 303 307 312 315 317 320 318 302 288 291 290 292 289 292 292 292 309 325 322 317 310 304
261 271 279 272 275 276 271 275 277 291 288 288 293 298 294 297 306 306 301 298 302 305 307 308 311 313 315 319 318 307 294 293 296 285 286 285 281 283 287 297 312 319 322 322
265 259 256 271 284 296 295 306 317 307 311 316 314 310 303 298 298 299 301 305 311 312 312 311 310 309 315 314 311 304 301 296 291 293 290 289 290 291 288 283 285 303 322 324
286 287 275 278 282 292 304 292 283 287 294 298 303 301 297 293 295 301 307 310 307 305 305 306 302 302 305 304 303 303 301 310 313 302 301 305 304 297 293 293 299 308 309 309
271 281 282 285 280 280 270 265 262 273 284 287 288 294 303 311 314 312 310 308 296 291 296 299 294 297 296 293 288 291 296 303 312 311 300 291 291 288 285 287 291 294 301 314
239 243 248 253 259 264 273 279 279 281 281 286 295 306 312 305 297 299 304 311 314 310 307 302 297 292 289 289 278 277 278 284 291 292 291 285 284 284 284 284 282 284 300 308
272 266 266 274 266 253 257 268 284 292 298 301 300 297 293 291 292 296 303 311 313 310 311 309 312 308 288 291 294 272 273 280 284 291 293 298 305 304 293 285 281 278 283 293
319 315 312 324 335 307 288 300 307 307 308 305 302 305 306 303 300 300 300 294 287 285 295 305 309 305 295 286 286 275 270 275 282 289 294 293 290 289 290 292 290 287 285 284
318 318 320 324 323 321 308 304 303 303 308 311 305 300 299 302 303 302 302 301 303 302 304 306 309 301 301 303 297 283 273 273 277 280 285 286 285 284 284 285 286 288 288 289
299 298 298 306 309 310 312 311 304 304 312 314 314 311 309 309 311 307 289 283 299 314 320 309 308 309 311 308 299 286 282 279 278 276 275 275 274 276 279 282 283 286 286 284
290 284 287 293 290 296 312 316 311 308 306 306 308 308 304 301 304 305 306 304 304 309 315 304 308 312 316 322 311 295 291 285 280 276 273 272 270 269 272 277 280 283 284 283
299 301 301 305 313 315 311 312 314 312 305 303 303 302 304 308 307 295 290 305 313 311 309 308 313 316 322 329 305 293 285 280 275 272 272 273 271 267 266 270 274 275 275 276
299 300 301 308 304 297 298 308 316 316 315 312 309 307 304 297 294 302 305 306 309 314 313 314 318 323 328 314 300 292 285 279 274 272 268 275 276 272 268 268 269 272 272 271
299 295 287 284 286 292 298 302 304 305 308 310 311 309 308 306 300 303 307 307 306 314 318 315 316 320 319 306 296 294 290 292 298 294 281 278 276 274 274 273 272 270 271 272
309 308 309 311 310 302 297 293 293 294 294 293 299 304 307 310 310 310 309 311 311 312 311 311 309 306 303 298 295 292 290 287 285 283 280 276 274 271 271 273 276 279 279 276
Height
1539 1535 1536 1535 1534 1535 1536 1533 1530 1521 1519 1510 1508 1505 1502 1500 1497 1495 1493 1492 1490 1488 1487 1485 1483 1482 1481 1480 1479 1478 1477 1476 1476 1476 1476 1476 1476 1477 1477 1478 1479 1479 1480 1481
1536 1532 1533 1531 1527 1528 1528 1528 1526 1521 1514 1506 1504 1503 1500 1498 1496 1494 1492 1491 1489 1487 1485 1484 1482 1480 1479 1477 1476 1476 1474 1473 1473 1473 1473 1473 1473 1474 1474 1475 1475 1476 1476 1477
1536 1532 1530 1526 1520 1521 1522 1519 1519 1516 1509 1504 1502 1500 1498 1496 1495 1493 1491 1489 1487 1486 1484 1482 1480 1478 1476 1475 1474 1473 1472 1471 1470 1470 1470 1470 1470 1471 1471 1471 1472 1473 1473 1475
1538 1535 1529 1516 1514 1514 1514 1512 1512 1508 1504 1503 1501 1499 1497 1495 1494 1492 1490 1488 1486 1484 1483 1481 1479 1476 1474 1472 1471 1470 1469 1468 1467 1466 1466 1467 1467 1467 1468 1468 1469 1469 1470 1471
1539 1538 1525 1514 1512 1513 1513 1509 1505 1505 1502 1501 1499 1497 1494 1494 1492 1491 1489 1487 1485 1483 1481 1479 1477 1474 1472 1470 1468 1467 1466 1465 1464 1463 1463 1463 1464 1465 1465 1466 1466 1467 1468 1468
1538 1534 1525 1510 1510 1508 1511 1507 1501 1501 1500 1499 1499 1499 1495 1492 1491 1489 1488 1486 1484 1481 1479 1477 1474 1472 1470 1468 1466 1464 1463 1462 1462 1461 1460 1460 1460 1461 1462 1462 1463 1464 1464 1465
1535 1532 1518 1510 1508 1509 1512 1505 1500 1498 1498 1498 1497 1496 1494 1491 1489 1488 1486 1484 1482 1479 1477 1475 1472 1470 1468 1466 1464 1463 1461 1460 1459 1458 1458 1458 1458 1458 1459 1459 1459 1460 1460 1461
1530 1530 1517 1507 1507 1509 1505 1500 1498 1497 1496 1495 1494 1492 1491 1489 1487 1486 1484 1482 1480 1477 1475 1473 1471 1468 1465 1464 1462 1461 1459 1458 1457 1456 1456 1455 1455 1455 1455 1456 1456 1457 1457 1457
1516 1511 1504 1502 1501 1501 1500 1499 1497 1495 1494 1493 1491 1489 1488 1487 1485 1483 1482 1480 1477 1475 1473 1471 1469 1466 1464 1462 1460 1458 1457 1455 1455 1454 1453 1452 1452 1452 1452 1452 1453 1453 1454 1454
1511 1503 1501 1500 1498 1498 1497 1496 1495 1493 1492 1490 1488 1487 1485 1484 1482 1481 1479 1477 1475 1473 1471 1468 1466 1464 1462 1460 1458 1456 1454 1453 1452 1451 1450 1450 1450 1449 1449 1450 1450 1451 1451 1451
1507 1501 1499 1496 1495 1495 1494 1493 1491 1490 1489 1487 1486 1484 1483 1481 1480 1478 1477 1475 1473 1471 1468 1466 1464 1462 1460 1458 1456 1454 1452 1451 1450 1449 1448 1447 1447 1447 1447 1447 1448 1448 1449 1449
1500 1497 1497 1493 1492 1492 1490 1489 1488 1487 1485 1484 1483 1482 1481 1479 1478 1476 1474 1472 1470 1468 1466 1464 1461 1459 1457 1455 1453 1452 1450 1449 1448 1447 1446 1445 1445 1445 1445 1445 1446 1446 1446 1447
1495 1493 1493 1491 1489 1489 1487 1486 1485 1484 1482 1481 1480 1479 1478 1477 1475 1474 1472 1470 1468 1466 1464 1461 1459 1457 1455 1453 1451 1450 1448 1447 1446 1445 1444 1443 1443 1442 1442 1443 1443 1443 1443 1444
1491 1491 1489 1487 1487 1485 1484 1483 1482 1481 1480 1479 1478 1476 1475 1474 1473 1471 1469 1467 1465 1463 1461 1459 1457 1455 1454 1452 1450 1448 1447 1446 1444 1443 1443 1442 1442 1441 1441 1440 1440 1440 1441 1441
1488 1487 1486 1484 1483 1482 1481 1480 1479 1477 1476 1475 1475 1474 1472 1471 1470 1468 1467 1465 1463 1461 1458 1456 1455 1453 1452 1450 1448 1447 1445 1444 1443 1442 1441 1441 1440 1439 1439 1438 1438 1437 1437 1438
1484 1483 1482 1481 1480 1479 1478 1477 1476 1474 1474 1473 1472 1471 1470 1468 1467 1466 1464 1462 1460 1458 1456 1454 1452 1451 1450 1448 1446 1445 1444 1443 1442 1441 1440 1439 1438 1437 1437 1436 1436 1435 1435 1435
1481 1479 1478 1477 1476 1475 1475 1474 1473 1472 1471 1470 1469 1468 1467 1465 1464 1462 1461 1459 1457 1455 1454 1452 1450 1449 1447 1446 1444 1443 1442 1441 1440 1439 1438 1437 1436 1436 1435 1435 1434 1433 1433 1433
1478 1477 1476 1475 1474 1473 1472 1472 1471 1470 1469 1468 1467 1466 1464 1462 1461 1459 1458 1456 1454 1452 1451 1449 1447 1446 1445 1443 1442 1441 1440 1439 1438 1437 1436 1435 1434 1434 1433 1432 1432 1431 1431 1430
1475 1474 1474 1473 1472 1471 1470 1470 1469 1468 1467 1466 1465 1463 1462 1460 1459 1457 1455 1453 1451 1449 1448 1446 1445 1443 1442 1441 1440 1439 1438 1437 1436 1435 1434 1433 1432 1431 1431 1430 1429 1429 1428 1428
1473 1472 1472 1471 1470 1469 1468 1468 1467 1466 1465 1464 1462 1461 1459 1457 1456 1454 1452 1450 1449 1447 1445 1443 1442 1441 1439 1438 1437 1436 1436 1435 1433 1433 1432 1431 1430 1429 1428 1428 1427 1426 1426 1425
1472 1471 1470 1469 1468 1468 1467 1466 1465 1464 1463 1461 1460 1458 1456 1455 1453 1451 1449 1447 1446 1444 1442 1441 1439 1438 1437 1436 1435 1434 1433 1432 1431 1430 1429 1428 1427 1427 1426 1425 1424 1424 1423 1423
1470 1469 1468 1468 1467 1466 1465 1464 1463 1462 1460 1459 1457 1456 1454 1452 1450 1449 1447 1446 1443 1442 1440 1438 1437 1436 1435 1434 1432 1431 1430 1429 1429 1428 1427 1426 1425 1424 1423 1422 1422 1421 1420 1420
1469 1468 1467 1466 1465 1464 1463 1462 1461 1460 1458 1456 1455 1453 1451 1450 1448 1446 1444 1443 1441 1439 1438 1436 1435 1434 1432 1431 1430 1429 1428 1427 1426 1425 1424 1423 1422 1421 1420 1419 1419 1418 1417 1417
1467 1466 1465 1464 1463 1462 1461 1460 1458 1457 1456 1454 1453 1451 1449 1447 1445 1444 1442 1440 1438 1437 1435 1434 1432 1431 1429 1428 1427 1426 1425 1424 1423 1422 1421 1420 1419 1418 1417 1416 1416 1415 1414 1414
1465 1464 1463 1462 1460 1459 1458 1457 1456 1454 1453 1451 1450 1448 1447 1445 1443 1441 1439 1437 1436 1434 1432 1431 1429 1428 1426 1425 1424 1423 1422 1421 1420 1419 1417 1416 1416 1415 1414 1413 1412 1411 1411 1410
1463 1462 1461 1459 1459 1457 1456 1455 1453 1452 1450 1448 1447 1445 1444 1442 1440 1438 1436 1435 1433 1431 1430 1428 1427 1425 1424 1422 1421 1420 1419 1418 1416 1415 1414 1413 1412 1411 1410 1409 1408 1408 1407 1406
1461 1460 1458 1457 1456 1455 1454 1452 1451 1449 1448 1446 1444 1443 1441 1439 1438 1436 1434 1432 1430 1429 1427 1426 1424 1423 1421 1420 1418 1417 1416 1414 1413 1412 1411 1410 1409 1408 1407 1406 1405 1404 1403 1402